Terminal Aerodrome Forecast
Issued by NWS Blacksburg, VA

Home | Current Version | Previous Version | Text Only | Print | Product List | Glossary On
Versions: 1 2 3 4 5 6 7 8 9 10 11 12 13 14 15 16 17 18 19 20 21 22 23 24 25 26 27 28 29 30 31 32 33 34 35 36 37 38 39
000
FTUS41 KRNK 212337
TAFROA
TAF
KROA 212337Z 2200/2224 27011G19KT P6SM SCT050 BKN110
     FM220200 30010KT P6SM SCT250
     FM221400 31012G20KT P6SM FEW040=

USA.gov is the U.S. government's official web portal to all federal, state and local government web resources and services.